| time (UTC) | temp F | wind direction | speed MPH | gust MPH | rain 1hr in | rain 24hr in | rain mn in | humidity % | barometer mb |
| 20260505035024 | 60 | 180 | 3.0 | 10.0 | 0.00 | 0.00 | 0.00 | 52 | 1007.5 |
| 20260505034024 | 61 | 180 | 3.0 | 8.0 | 0.00 | 0.00 | 0.00 | 51 | 1007.3 |
| 20260505033024 | 61 | 180 | 3.0 | 8.0 | 0.00 | 0.00 | 0.00 | 51 | 1007.3 |
| 20260505032040 | 61 | 180 | 3.0 | 8.0 | 0.00 | 0.00 | 0.00 | 50 | 1007.2 |
| 20260505031020 | 61 | 180 | 1.0 | 7.0 | 0.00 | 0.00 | 0.00 | 51 | 1007.2 |
| 20260505030023 | 61 | 180 | 3.0 | 9.0 | 0.00 | 0.00 | 0.00 | 51 | 1007.1 |
| 20260505025044 | 60 | 180 | 3.0 | 11.0 | 0.00 | 0.00 | 0.00 | 52 | 1007.1 |
| 20260505024145 | 59 | 180 | 2.0 | 6.0 | 0.00 | 0.00 | 0.00 | 55 | 1007.0 |
| 20260505023023 | 59 | 180 | 1.0 | 5.0 | 0.00 | 0.00 | 0.00 | 56 | 1007.1 |
| 20260505022024 | 58 | 180 | 1.0 | 5.0 | 0.00 | 0.00 | 0.00 | 58 | 1007.0 |
| 20260505021040 | 59 | 0.0 | 2.0 | 0.00 | 0.00 | 0.00 | 57 | 1007.1 | |
| 20260505020016 | 59 | 0.0 | 0.0 | 0.00 | 0.00 | 0.00 | 56 | 1007.2 | |
| 20260505015020 | 59 | 0.0 | 3.0 | 0.00 | 0.00 | 0.00 | 56 | 1007.2 | |
| 20260505014020 | 60 | 0.0 | 0.0 | 0.00 | 0.00 | 0.00 | 55 | 1007.2 | |
| 20260505013020 | 60 | 0.0 | 4.0 | 0.00 | 0.00 | 0.00 | 54 | 1007.0 | |
| 20260505012020 | 60 | 0.0 | 2.0 | 0.00 | 0.00 | 0.00 | 55 | 1007.1 | |
| 20260505011100 | 60 | 0.0 | 1.0 | 0.00 | 0.00 | 0.00 | 53 | 1007.0 | |
| 20260505010016 | 61 | 0.0 | 0.0 | 0.00 | 0.00 | 0.00 | 52 | 1006.9 | |
| 20260505005020 | 62 | 0.0 | 0.0 | 0.00 | 0.00 | 0.00 | 51 | 1006.8 | |
| 20260505004020 | 63 | 0.0 | 5.0 | 0.00 | 0.00 | 0.00 | 50 | 1006.7 | |
| 20260505003020 | 63 | 0.0 | 4.0 | 0.00 | 0.00 | 0.00 | 49 | 1006.6 | |
| 20260505002040 | 63 | 0.0 | 3.0 | 0.00 | 0.00 | 0.00 | 48 | 1006.4 | |
| 20260505001020 | 64 | 0.0 | 8.0 | 0.00 | 0.00 | 0.00 | 47 | 1006.2 | |
| 20260505000020 | 64 | 225 | 2.0 | 10.0 | 0.00 | 0.00 | 0.00 | 47 | 1006.0 |
| 20260504235036 | 64 | 248 | 1.0 | 8.0 | 0.00 | 0.00 | 0.00 | 45 | 1005.9 |
| 20260504234020 | 65 | 203 | 1.0 | 4.0 | 0.00 | 0.00 | 0.00 | 45 | 1005.8 |
| 20260504233021 | 65 | 248 | 1.0 | 8.0 | 0.00 | 0.00 | 0.00 | 45 | 1005.6 |
| 20260504232020 | 65 | 203 | 1.0 | 4.0 | 0.00 | 0.00 | 0.00 | 45 | 1005.5 |
| 20260504231040 | 66 | 0.0 | 1.0 | 0.00 | 0.00 | 0.00 | 45 | 1005.5 | |
| 20260504230020 | 66 | 270 | 1.0 | 4.0 | 0.00 | 0.00 | 0.00 | 44 | 1005.3 |
| 20260504225020 | 67 | 270 | 1.0 | 9.0 | 0.00 | 0.00 | 0.00 | 42 | 1005.2 |
| 20260504224016 | 67 | 270 | 1.0 | 5.0 | 0.00 | 0.00 | 0.00 | 43 | 1005.1 |
| 20260504223020 | 67 | 248 | 2.0 | 10.0 | 0.00 | 0.00 | 0.00 | 42 | 1005.1 |
| 20260504222041 | 68 | 270 | 2.0 | 6.0 | 0.00 | 0.00 | 0.00 | 42 | 1005.0 |
| 20260504221020 | 68 | 270 | 3.0 | 9.0 | 0.00 | 0.00 | 0.00 | 41 | 1005.0 |
| 20260504220020 | 68 | 270 | 2.0 | 8.0 | 0.00 | 0.00 | 0.00 | 39 | 1004.9 |
| 20260504215020 | 68 | 270 | 3.0 | 12.0 | 0.00 | 0.00 | 0.00 | 41 | 1004.8 |
| 20260504214016 | 68 | 270 | 2.0 | 7.0 | 0.00 | 0.00 | 0.00 | 44 | 1004.8 |
| 20260504213037 | 67 | 270 | 2.0 | 7.0 | 0.00 | 0.00 | 0.00 | 44 | 1004.9 |
| 20260504212020 | 68 | 270 | 3.0 | 8.0 | 0.00 | 0.00 | 0.00 | 43 | 1005.0 |
| 20260504211020 | 67 | 270 | 2.0 | 7.0 | 0.00 | 0.00 | 0.00 | 44 | 1005.1 |
| 20260504210041 | 67 | 270 | 3.0 | 10.0 | 0.00 | 0.00 | 0.00 | 43 | 1005.2 |
| 20260504205018 | 68 | 270 | 2.0 | 8.0 | 0.00 | 0.00 | 0.00 | 43 | 1005.3 |
| 20260504204020 | 68 | 270 | 3.0 | 8.0 | 0.00 | 0.00 | 0.00 | 44 | 1005.2 |
| 20260504203016 | 68 | 270 | 3.0 | 8.0 | 0.00 | 0.00 | 0.00 | 42 | 1005.3 |
| 20260504202020 | 68 | 270 | 4.0 | 12.0 | 0.00 | 0.00 | 0.00 | 43 | 1005.1 |
| 20260504201020 | 67 | 270 | 3.0 | 12.0 | 0.00 | 0.00 | 0.00 | 43 | 1005.2 |
| 20260504200020 | 67 | 270 | 2.0 | 7.0 | 0.00 | 0.00 | 0.00 | 44 | 1005.3 |
| 20260504195020 | 67 | 293 | 3.0 | 10.0 | 0.00 | 0.00 | 0.00 | 46 | 1005.4 |
| 20260504194140 | 67 | 270 | 5.0 | 18.0 | 0.00 | 0.00 | 0.00 | 43 | 1005.4 |
| 20260504193020 | 66 | 270 | 4.0 | 16.0 | 0.00 | 0.00 | 0.00 | 44 | 1005.6 |
| 20260504192016 | 66 | 293 | 3.0 | 11.0 | 0.00 | 0.00 | 0.00 | 44 | 1005.7 |
| 20260504191020 | 66 | 293 | 3.0 | 10.0 | 0.00 | 0.00 | 0.00 | 46 | 1005.8 |
| 20260504190040 | 67 | 270 | 3.0 | 9.0 | 0.00 | 0.00 | 0.00 | 44 | 1005.8 |
| 20260504185020 | 66 | 270 | 3.0 | 9.0 | 0.00 | 0.00 | 0.00 | 47 | 1005.7 |
| 20260504184020 | 65 | 270 | 3.0 | 9.0 | 0.00 | 0.00 | 0.00 | 50 | 1005.9 |
| 20260504183020 | 65 | 270 | 2.0 | 6.0 | 0.00 | 0.00 | 0.00 | 50 | 1005.9 |
| 20260504182016 | 65 | 270 | 3.0 | 7.0 | 0.00 | 0.00 | 0.00 | 50 | 1006.0 |
| 20260504181016 | 64 | 293 | 1.0 | 7.0 | 0.00 | 0.00 | 0.00 | 54 | 1006.0 |
| 20260504180040 | 64 | 293 | 2.0 | 5.0 | 0.00 | 0.00 | 0.00 | 51 | 1006.0 |
| 20260504175020 | 62 | 293 | 2.0 | 6.0 | 0.00 | 0.00 | 0.00 | 52 | 1006.0 |
| 20260504174020 | 60 | 248 | 1.0 | 4.0 | 0.00 | 0.00 | 0.00 | 57 | 1006.0 |
| 20260504173020 | 58 | 0.0 | 3.0 | 0.00 | 0.00 | 0.00 | 59 | 1006.2 | |
| 20260504172020 | 57 | 0.0 | 0.0 | 0.00 | 0.00 | 0.00 | 59 | 1006.2 | |
| 20260504171016 | 57 | 270 | 1.0 | 4.0 | 0.00 | 0.00 | 0.00 | 56 | 1006.3 |
| 20260504151101 | 58 | 270 | 2.0 | 8.0 | 0.00 | 0.00 | 0.00 | 54 | 1006.5 |
| 20260504141040 | 58 | 225 | 2.0 | 7.0 | 0.00 | 0.00 | 0.00 | 54 | 1006.8 |
| 20260504081020 | 41 | 0.0 | 2.0 | 0.00 | 0.01 | 0.00 | 79 | 1008.1 | |
| 20260504050020 | 33 | 0.0 | 3.0 | 0.00 | 0.01 | 0.00 | 87 | 1007.8 | |
| 20260504045020 | 33 | 0.0 | 0.0 | 0.00 | 0.01 | 0.00 | 87 | 1007.9 | |
| 20260504044016 | 33 | 0.0 | 0.0 | 0.00 | 0.01 | 0.00 | 86 | 1008.0 | |
| 20260504043040 | 32 | 0.0 | 0.0 | 0.00 | 0.01 | 0.00 | 88 | 1008.0 | |
| 20260504042020 | 32 | 0.0 | 0.0 | 0.00 | 0.01 | 0.00 | 87 | 1008.1 | |
| 20260504041100 | 32 | 0.0 | 0.0 | 0.00 | 0.01 | 0.00 | 86 | 1007.9 | |
| 20260504040040 | 32 | 0.0 | 0.0 | 0.00 | 0.01 | 0.01 | 85 | 1007.9 |